EN

Hourly Weather Barmuty

Today, 23 July, Friday

Time Temperature Precipitation Wind Pressure Humidity
00:00 +15°C° 0 mm 2 mps 749 mmHg 68%
01:00 +15°C° 0 mm 2 mps 749 mmHg 67%
02:00 +16°C° 0 mm 1 mps 749 mmHg 65%
03:00 +18°C° 0 mm 1 mps 749 mmHg 65%
04:00 +18°C° 0 mm 1 mps 749 mmHg 64%
05:00 +18°C° 0 mm 1 mps 749 mmHg 64%
06:00 +19°C° 0 mm 1 mps 749 mmHg 68%
07:00 +19°C° 0 mm 1 mps 749 mmHg 71%
08:00 +20°C° 0 mm 1 mps 749 mmHg 74%
09:00 +20°C° 0.1 mm 1 mps 749 mmHg 72%
10:00 +20°C° 0.1 mm 2 mps 749 mmHg 69%
11:00 +21°C° 0.1 mm 2 mps 749 mmHg 67%
12:00 +23°C° 0.1 mm 2 mps 749 mmHg 63%
13:00 +23°C° 0.1 mm 2 mps 749 mmHg 60%
14:00 +24°C° 0 mm 3 mps 748 mmHg 56%
15:00 +24°C° 0 mm 2 mps 748 mmHg 57%
16:00 +24°C° 0 mm 2 mps 748 mmHg 58%
17:00 +24°C° 0 mm 2 mps 748 mmHg 59%
18:00 +23°C° 0 mm 2 mps 748 mmHg 64%
19:00 +22°C° 0 mm 1 mps 748 mmHg 68%
20:00 +21°C° 0 mm 1 mps 748 mmHg 72%
21:00 +20°C° 0 mm 1 mps 748 mmHg 75%
22:00 +19°C° 0 mm 1 mps 748 mmHg 79%
23:00 +18°C° 0 mm 1 mps 748 mmHg 82%

Tomorrow, 24 July, Saturday

Time Temperature Precipitation Wind Pressure Humidity
00:00 +18°C° 0 mm 1 mps 748 mmHg 83%
01:00 +16°C° 0 mm 1 mps 748 mmHg 85%
02:00 +16°C° 0 mm 1 mps 748 mmHg 86%
03:00 +16°C° 0 mm 1 mps 748 mmHg 86%
04:00 +16°C° 0 mm 1 mps 748 mmHg 86%
05:00 +16°C° 0 mm 1 mps 748 mmHg 86%
06:00 +19°C° 0 mm 1 mps 748 mmHg 82%
07:00 +20°C° 0 mm 1 mps 748 mmHg 77%
08:00 +21°C° 0 mm 1 mps 748 mmHg 73%
09:00 +23°C° 0 mm 1 mps 749 mmHg 68%
10:00 +24°C° 0 mm 1 mps 749 mmHg 62%
11:00 +25°C° 0 mm 1 mps 749 mmHg 57%
12:00 +26°C° 0.1 mm 1 mps 749 mmHg 55%
13:00 +26°C° 0.1 mm 1 mps 749 mmHg 53%
14:00 +26°C° 0.1 mm 2 mps 748 mmHg 52%
15:00 +26°C° 0 mm 1 mps 748 mmHg 56%
16:00 +25°C° 0 mm 1 mps 748 mmHg 60%
17:00 +25°C° 0 mm 1 mps 749 mmHg 64%
18:00 +24°C° 0 mm 1 mps 749 mmHg 66%
19:00 +23°C° 0 mm 1 mps 749 mmHg 67%
20:00 +22°C° 0 mm 1 mps 749 mmHg 69%
21:00 +22°C° 0 mm 1 mps 749 mmHg 70%
22:00 +21°C° 0 mm 1 mps 749 mmHg 71%
23:00 +21°C° 0 mm 1 mps 749 mmHg 71%

Day after tomorrow, 25 July, Sunday

Time Temperature Precipitation Wind Pressure Humidity
00:00 +20°C° 0 mm 1 mps 749 mmHg 73%
01:00 +20°C° 0 mm 1 mps 749 mmHg 75%
02:00 +19°C° 0 mm 1 mps 749 mmHg 76%
03:00 +20°C° 0 mm 1 mps 749 mmHg 76%
04:00 +20°C° 0 mm 1 mps 749 mmHg 76%
05:00 +20°C° 0 mm 1 mps 749 mmHg 76%
06:00 +20°C° 0 mm 1 mps 750 mmHg 75%
07:00 +20°C° 0 mm 2 mps 750 mmHg 73%
08:00 +21°C° 0 mm 2 mps 750 mmHg 71%
09:00 +24°C° 0.2 mm 2 mps 750 mmHg 66%
10:00 +25°C° 0.2 mm 2 mps 750 mmHg 61%
11:00 +26°C° 0.2 mm 3 mps 750 mmHg 55%
12:00 +27°C° 0 mm 3 mps 750 mmHg 52%
13:00 +27°C° 0 mm 3 mps 750 mmHg 49%
14:00 +28°C° 0 mm 3 mps 750 mmHg 45%
15:00 +28°C° 0 mm 3 mps 750 mmHg 47%
16:00 +28°C° 0 mm 3 mps 750 mmHg 48%
17:00 +27°C° 0 mm 3 mps 750 mmHg 50%
18:00 +26°C° 0 mm 3 mps 750 mmHg 55%
19:00 +24°C° 0 mm 3 mps 750 mmHg 61%
20:00 +22°C° 0 mm 3 mps 750 mmHg 66%
21:00 +21°C° 0 mm 3 mps 750 mmHg 67%
22:00 +21°C° 0 mm 3 mps 750 mmHg 67%
23:00 +20°C° 0 mm 3 mps 750 mmHg 67%

26 July, Monday

Time Temperature Precipitation Wind Pressure Humidity
00:00 +19°C° 0 mm 3 mps 750 mmHg 69%
01:00 +18°C° 0 mm 3 mps 750 mmHg 71%
02:00 +18°C° 0 mm 3 mps 750 mmHg 72%
03:00 +17°C° 0 mm 3 mps 750 mmHg 74%
04:00 +17°C° 0 mm 3 mps 750 mmHg 77%
05:00 +17°C° 0 mm 3 mps 750 mmHg 79%
06:00 +18°C° 0 mm 4 mps 750 mmHg 75%
07:00 +20°C° 0 mm 4 mps 750 mmHg 72%
08:00 +22°C° 0 mm 5 mps 750 mmHg 68%
09:00 +23°C° 0 mm 5 mps 750 mmHg 63%
10:00 +26°C° 0 mm 6 mps 750 mmHg 59%
11:00 +27°C° 0 mm 6 mps 750 mmHg 54%
12:00 +28°C° 0 mm 6 mps 750 mmHg 52%
13:00 +29°C° 0 mm 6 mps 750 mmHg 49%
14:00 +29°C° 0 mm 6 mps 750 mmHg 47%
15:00 +29°C° 0 mm 5 mps 749 mmHg 50%
16:00 +28°C° 0 mm 5 mps 749 mmHg 53%
17:00 +28°C° 0 mm 4 mps 749 mmHg 56%
18:00 +27°C° 0 mm 4 mps 749 mmHg 59%
19:00 +26°C° 0 mm 4 mps 749 mmHg 62%
20:00 +25°C° 0 mm 4 mps 749 mmHg 65%
21:00 +25°C° 0 mm 4 mps 749 mmHg 66%
22:00 +23°C° 0 mm 5 mps 749 mmHg 66%
23:00 +23°C° 0 mm 5 mps 749 mmHg 66%

27 July, Tuesday

Time Temperature Precipitation Wind Pressure Humidity
00:00 +22°C° 0 mm 5 mps 749 mmHg 69%
01:00 +22°C° 0 mm 5 mps 748 mmHg 72%
02:00 +21°C° 0 mm 5 mps 748 mmHg 75%
03:00 +21°C° 0 mm 5 mps 748 mmHg 76%
04:00 +21°C° 0 mm 5 mps 748 mmHg 76%
05:00 +20°C° 0 mm 5 mps 748 mmHg 77%
06:00 +21°C° 0.1 mm 5 mps 748 mmHg 75%
07:00 +22°C° 0.1 mm 5 mps 748 mmHg 73%
08:00 +22°C° 0.1 mm 6 mps 748 mmHg 71%
09:00 +25°C° 0 mm 5 mps 748 mmHg 67%
10:00 +26°C° 0 mm 5 mps 748 mmHg 63%
11:00 +28°C° 0 mm 5 mps 748 mmHg 59%
12:00 +28°C° 0 mm 5 mps 748 mmHg 58%
13:00 +29°C° 0 mm 5 mps 748 mmHg 57%
14:00 +29°C° 0 mm 5 mps 747 mmHg 56%
15:00 +30°C° 0 mm 4 mps 747 mmHg 56%
16:00 +30°C° 0 mm 4 mps 747 mmHg 55%
17:00 +31°C° 0 mm 3 mps 747 mmHg 55%
18:00 +30°C° 0.1 mm 3 mps 746 mmHg 62%
19:00 +28°C° 0.1 mm 3 mps 746 mmHg 68%
20:00 +26°C° 0.1 mm 3 mps 745 mmHg 75%
21:00 +25°C° 1.1 mm 2 mps 745 mmHg 80%
22:00 +24°C° 1.1 mm 2 mps 745 mmHg 85%
23:00 +23°C° 1.1 mm 2 mps 745 mmHg 90%

28 July, Wednesday

Time Temperature Precipitation Wind Pressure Humidity
00:00 +23°C° 0.8 mm 2 mps 745 mmHg 91%
01:00 +21°C° 0.8 mm 2 mps 745 mmHg 93%
02:00 +21°C° 0.8 mm 3 mps 745 mmHg 95%
03:00 +21°C° 0.2 mm 3 mps 744 mmHg 94%
04:00 +21°C° 0.2 mm 3 mps 744 mmHg 93%
05:00 +21°C° 0.2 mm 3 mps 743 mmHg 93%
06:00 +22°C° 0.2 mm 3 mps 743 mmHg 89%
07:00 +24°C° 0.2 mm 3 mps 743 mmHg 86%
08:00 +25°C° 0.2 mm 3 mps 743 mmHg 82%
09:00 +27°C° 0 mm 4 mps 743 mmHg 75%
10:00 +28°C° 0 mm 5 mps 743 mmHg 67%
11:00 +30°C° 0 mm 5 mps 743 mmHg 60%
12:00 +30°C° 0.5 mm 5 mps 743 mmHg 61%
13:00 +29°C° 0.5 mm 6 mps 744 mmHg 63%
14:00 +29°C° 0.5 mm 6 mps 744 mmHg 65%
15:00 +28°C° 0.4 mm 6 mps 744 mmHg 68%
16:00 +27°C° 0.4 mm 7 mps 744 mmHg 70%
17:00 +26°C° 0.4 mm 7 mps 744 mmHg 73%
18:00 +24°C° 0 mm 7 mps 744 mmHg 76%
19:00 +23°C° 0 mm 7 mps 744 mmHg 79%
20:00 +22°C° 0 mm 7 mps 744 mmHg 82%
21:00 +21°C° 0.1 mm 6 mps 745 mmHg 86%
22:00 +21°C° 0.1 mm 5 mps 745 mmHg 89%
23:00 +20°C° 0.1 mm 4 mps 746 mmHg 92%
Show more

We Need Your Consent

Meteoprog and our Service Providers may store and access personal data such as cookies, device identifiers or other similar technologies on your device and process such data to personalise content and ads, as well as provide social media features and to analyse the traffic.

  • Store and/or access information on your device

    Cookies, device identifiers or other information can be stored or accessed on your device for the purposes indicated above.

  • Personalised ads and content, ad and content measurement, audience insights, and products development

    Ads and content can be personalised based on a profile. More data can be added to better personalise ads and content. Ad and content performance can be measured. Insights about the audience who saw the ads and content can be derived. Such data can be used to develop or improve user’s experience, systems and software.

By clicking ‘I Agree’ you will allow the use of indicated cookies, device identifiers, web beacons or other similar technologies. Your settings can be changed in the browser on your device.

For certain purposes, legitimate interests may be relied on, rather than consent. You can read more about this in our Privacy and Cookie Policy.